www.pogodaiklimat.ru
ПОГОДА в Лемланд Нихамн
Время
(UTC), дата
01 13.01
02 13.01
03 13.01
04 13.01
05 13.01
06 13.01
07 13.01
08 13.01
09 13.01
10 13.01
11 13.01
12 13.01
13 13.01
14 13.01
15 13.01
16 13.01
17 13.01
18 13.01
19 13.01
20 13.01
21 13.01
22 13.01
23 13.01
00 14.01
01 14.01
02 14.01
03 14.01
04 14.01
05 14.01
06 14.01
07 14.01
08 14.01
09 14.01
10 14.01
11 14.01
12 14.01
13 14.01
14 14.01
15 14.01
16 14.01
17 14.01
18 14.01
19 14.01
20 14.01
21 14.01
22 14.01
23 14.01
00 15.01
01 15.01
02 15.01
03 15.01
04 15.01
05 15.01
06 15.01
07 15.01
08 15.01
09 15.01
10 15.01
11 15.01
12 15.01
13 15.01
14 15.01
15 15.01
16 15.01
17 15.01
18 15.01
19 15.01
20 15.01
21 15.01
22 15.01
23 15.01
00 16.01
01 16.01
02 16.01
03 16.01
04 16.01
05 16.01
06 16.01
07 16.01
08 16.01
09 16.01
10 16.01
11 16.01
12 16.01
13 16.01
14 16.01
15 16.01
16 16.01
17 16.01
18 16.01
19 16.01
20 16.01
21 16.01
22 16.01
23 16.01
00 17.01
01 17.01
02 17.01
03 17.01
04 17.01
05 17.01
06 17.01
07 17.01
08 17.01
09 17.01
10 17.01
11 17.01
12 17.01
13 17.01
14 17.01
15 17.01
16 17.01
17 17.01
18 17.01
19 17.01
20 17.01
21 17.01
22 17.01
23 17.01
00 18.01
01 18.01
02 18.01
03 18.01
04 18.01
05 18.01
06 18.01
07 18.01
08 18.01
09 18.01
10 18.01
11 18.01
12 18.01
13 18.01
14 18.01
15 18.01
16 18.01
17 18.01
18 18.01
19 18.01
20 18.01
21 18.01
22 18.01
23 18.01
00 19.01
01 19.01
02 19.01
03 19.01
04 19.01
05 19.01
06 19.01
07 19.01
08 19.01
09 19.01
10 19.01
11 19.01
12 19.01
13 19.01
14 19.01
15 19.01
16 19.01
17 19.01
18 19.01
19 19.01
20 19.01
21 19.01
22 19.01
23 19.01
00 20.01
Ветер
(напр.,м/с)
Видим. Явления Облачность Т
(С)
Тd
(С)
f
(%)
Тe
(С)
Тes
(С)
Комфортность P
(гПа)
Po
(гПа)
Тmin
(С)
Tmax
(С)
R
(мм)
R24
(мм)
S
(см)
В 4-5
{6}
50 км ясно +0.6 -1.7 85 -5 -5 1001.9 1000.7
СВ 4-5
{6}
50 км ясно -0.2 -1.5 91 -6 -6 1002.4 1001.1
СВ 3-4
{5}
50 км 4/4 1000 м -0.1 -1.0 94 -5 -5 1002.6 1001.3
СВ 5-7
{7}
40 км 8/8 600 м +0.4 -0.3 95 -6 -6 1002.7 1001.5
В 9-11
{11}
21 км 9/9 200 м +1.7 +0.5 92 -6 -6 1002.9 1001.6
В 9-12
{14}
20 км {морось, туман} 9/9 200 м +1.6 +0.2 90 -6 -6 1003.6 1002.3 -0.7 +1.8
В 10-12
{14}
25 км в посл. час осадки 10/10 200 м +1.4 -0.1 90 -6 -6 1004.4 1003.1
В 11-15
{16}
2800 м слаб. ливневой снег 10/10 100 м +0.7 +0.1 96 -8 -8 1005.3 1004.0
3900 м слаб. снег 10/10 700 м +0.4 -0.1 96 1005.9 1004.6
В 11-13
{14}
2200 м слаб. снег 10/10 100 м -0.8 -1.3 96 -10 -10 1006.6 1005.3
В 10-13
{14}
8000 м слаб. дождь со снегом 10/10 630 м -0.8 -1.3 96 -9 -9 1006.9 1005.6
В 10-14
{14}
3000 м слаб. снег 10/10 200 м -1.1 -1.6 96 -10 -10 1007.4 1006.1
В 10-13
{14}
7000 м слаб. дождь со снегом 10/10 200 м -0.6 -1.2 96 -9 -9 1007.9 1006.6
В 10-14
{15}
9000 м слаб. ледяной дождь 10/10 200 м -0.5 -1.4 94 -9 -9 1008.5 1007.2
В 12-15
{16}
22 км слаб. переохл. морось (гололёд) {дождь} 10/10 700 м -0.5 -1.9 90 -10 -10 1009.4 1008.1
В 12-16
{16}
27 км 10/10 750 м -0.3 -1.9 89 -9 -9 1010.4 1009.1
В 11-14
{16}
2000 м слаб. снег 10/10 720 м -0.9 -1.6 95 -10 -10 1011.0 1009.7
В 11-15
{16}
3900 м слаб. дождь со снегом 10/10 200 м -1.2 -2.1 94 -10 -10 1012.1 1010.8 -1.3 +1.6
В 11-14
{15}
13 км слаб. переохл. морось (гололёд) 10/10 100 м -1.8 -2.7 94 -11 -11 1013.1 1011.8
В 11-13
{14}
12 км слаб. переохл. морось (гололёд) 10/10 100 м -2.0 -3.0 93 -11 -11 1013.9 1012.6
В 11-13
{15}
11 км {ливн. снег, дождь} 10/10 100 м -2.2 -3.1 94 -12 -12 1014.7 1013.4
В 10-13
{14}
13 км 10/10 100 м -3.0 -3.9 93 -12 -12 1015.9 1014.5
В 10-13
{14}
17 км ливневой дождь 10/10 200 м -3.1 -4.3 91 -12 -12 1016.6 1015.3
В 9-11
{13}
16 км слаб. снег 10/10 200 м -3.0 -4.4 90 -12 -12 1017.2 1015.9
В 9-12
{12}
18 км слаб. переохл. морось (гололёд) 10/10 200 м -3.1 -4.5 90 -12 -12 1017.8 1016.5
СВ 9-10
{12}
15 км слаб. переохл. морось (гололёд) 10/10 200 м -3.5 -4.7 91 -12 -12 1018.2 1016.9
СВ 8-11
{12}
17 км слаб. переохл. морось (гололёд) 10/10 200 м -4.0 -5.1 92 -13 -13 1018.5 1017.2
СВ 9-10
{11}
19 км осадки 10/10 200 м -4.3 -5.5 91 -13 -13 1019.0 1017.7
СВ 9-11
{11}
19 км слаб. переохл. дождь (гололёд) 10/10 200 м -4.4 -5.6 91 -14 -14 1019.4 1018.0
СВ 8-10
{11}
18 км слаб. переохл. морось (гололёд) 10/10 200 м -4.4 -5.6 91 -13 -13 1019.5 1018.1 -4.7 -1.1
СВ 9-11
{12}
22 км слаб. снег 10/10 1350 м -4.1 -5.3 91 -13 -13 1020.1 1018.8
СВ 8-11
{12}
30 км в посл. час переохл. осадки (гололёд) 10/10 1500 м -4.0 -5.3 91 -13 -13 1020.8 1019.5
СВ 8-10
{10}
30 км {снег, морось} 10/10 1500 м -3.9 -5.2 91 -13 -13 1021.3 1020.0
СВ 8-10
{11}
22 км 10/10 1500 м -3.7 -5.0 91 -12 -12 1021.5 1020.2
СВ 8-10
{11}
27 км 10/10 1500 м -3.7 -5.3 89 -12 -12 1021.6 1020.2
С 7-9
{10}
24 км {снег, морось} 10/10 1500 м -3.5 -5.0 89 -12 -12 1021.4 1020.1
С 9-11
{11}
20 км снежные зёрна 10/10 200 м -3.4 -4.9 89 -12 -12 1021.5 1020.2
СВ 9-12
{13}
35 км слаб. снег 10/10 1440 м -3.8 -6.5 81 -13 -13 1021.7 1020.4
СВ 7-9
{12}
26 км слаб. ливневой снег 5/5 1320 м -3.9 -7.0 79 -12 -12 1021.9 1020.5
С 7-11
{11}
20 км слаб. снег 10/10 300 м -3.7 -5.9 85 -12 -12 1021.8 1020.5
С 8-12
{12}
15 км слаб. снег 10/10 600 м -3.6 -6.4 81 -12 -12 1021.7 1020.3
С 9-13
{13}
50 км в посл. час снег {ливн. снег} 9/9 600 м -4.4 -7.4 80 -13 -13 1021.8 1020.5 -4.5 -3.3
СВ 10-13
{13}
30 км 9/9 300 м -5.5 -8.5 79 -15 -15 1021.9 1020.6
СВ 9-12
{13}
45 км ясно -6.7 -10.6 74 -16 -16 1022.3 1020.9
СВ 9-11
{12}
24 км снежные зёрна {метель} 6/5 300 м -7.6 -10.1 82 -17 -17 1022.6 1021.2
СВ 9-11
{11}
30 км в посл. час снег 4/4 300 м -7.7 -10.4 81 -17 -17 1022.7 1021.3
СВ 9-11
{12}
29 км слаб. ливневой снег 3/1 300 м -8.1 -11.1 79 -18 -18 1022.7 1021.4
СВ 8-12
{12}
40 км в посл. час зёрна {ливн. снег} ясно -8.2 -11.6 76 -18 -18 1022.8 1021.4
СВ 9-11
{12}
45 км 1/1 300 м -8.2 -11.2 79 -18 -18 1022.9 1021.5
СВ 8-11
{11}
40 км слаб. ливневой снег ясно -8.3 -10.9 81 -18 -18 1022.9 1021.6
СВ 8-11
{12}
30 км слаб. ливневой снег 1/1 300 м -8.0 -10.5 82 -17 -17 1022.9 1021.6
СВ 8-10
{11}
21 км слаб. снег 1/1 300 м -7.6 -9.9 84 -17 -17 1022.8 1021.4
СВ 7-10
{10}
35 км слаб. снег ясно -7.4 -9.8 83 -16 -16 1022.6 1021.3
СВ 7-9
{10}
23 км слаб. снег 5/5 300 м -7.1 -9.5 83 -16 -16 1022.8 1021.4 -8.5 -4.4
СВ 8-10
{10}
50 км слаб. ливневой снег 1/1 300 м -6.9 -9.6 81 -16 -16 1022.7 1021.3
СВ 7-9
{11}
45 км 1/1 300 м -6.9 -9.6 81 -16 -16 1022.9 1021.6
СВ 6-9
{9}
50 км слаб. ливневой снег ясно -6.4 -8.9 82 -14 -14 1023.1 1021.7
СВ 8-11
{11}
50 км ясно -6.5 -9.7 78 -16 -15 1023.3 1021.9
СВ 7-9
{11}
50 км ясно -6.4 -9.5 79 -15 -15 1023.1 1021.7
СВ 7-9
{10}
27 км слаб. ливневой снег 3/3 600 м -5.9 -8.7 81 -14 -14 1023.0 1021.7
СВ 6-9
{9}
10 км слаб. снег 10/10 600 м -5.7 -8.3 82 -14 -14 1023.0 1021.7
СВ 4-6
{9}
27 км снежные зёрна 10/10 600 м -5.4 -7.7 84 -12 -12 1022.8 1021.4
С 4-5
{6}
50 км в посл. час осадки {ливн. снег} 10/10 300 м -4.7 -6.8 85 -11 -11 1022.4 1021.1
С 2-3
{6}
5000 м слаб. снег 10/10 360 м -4.9 -6.4 89 -9 -9 1022.0 1020.6
С 2-3
{3}
7000 м слаб. снег 10/10 600 м -4.7 -5.9 91 -9 -9 1021.9 1020.5
СЗ 1-2
{3}
7000 м слаб. снег 10/10 600 м -4.1 -5.4 91 -7 -7 1021.4 1020.0 -7.1 -4.1
ЮЗ 1-2
{2}
5000 м слаб. снег 10/10 1050 м -3.2 -4.2 93 -6 -6 1020.9 1019.5
С 9-12
{12}
4100 м слаб. снег 10/10 1050 м -0.4 -1.2 94 -9 -9 1020.1 1018.8
СЗ 10-12
{13}
11 км слаб. ледяной дождь 10/10 1080 м +0.4 -0.5 94 -8 -8 1019.5 1018.2
С 10-12
{13}
4600 м слаб. ледяной дождь 10/10 1000 м +0.4 -0.1 96 -8 -8 1019.1 1017.8
С 8-11
{12}
20 км слаб. дождь 10/10 1110 м +0.7 +0.3 97 -7 -7 1018.7 1017.4
С 7-10
{11}
17 км слаб. дождь 9/9 720 м +0.8 +0.1 95 -6 -6 1018.0 1016.7
С 8-9
{11}
11 км слаб. ливневой дождь 9/9 200 м +1.0 +0.3 95 -6 -6 1017.6 1016.3
С 6-7
{10}
9000 м слаб. дождь 10/10 200 м +0.9 +0.4 96 -6 -6 1017.6 1016.3
СВ 8-10
{10}
10 км слаб. снег 10/10 300 м +0.5 -0.6 92 -7 -7 1017.5 1016.2
СВ 8-11
{11}
18 км слаб. снег 10/10 300 м +0.5 -0.7 92 -7 -7 1017.5 1016.2
СВ 8-10
{10}
13 км слаб. снег 9/9 750 м +0.2 -0.3 96 -7 -7 1017.6 1016.3
СВ 8-10
{11}
4100 м слаб. ливневой снег 9/9 870 м -0.6 -1.9 91 -8 -8 1017.7 1016.4 -4.1 +1.2
СВ 9-11
{11}
4400 м слаб. снег 10/10 540 м -1.1 -1.9 94 -9 -9 1018.1 1016.8
В 7-11
{12}
45 км в посл. час переохл. осадки (гололёд) 10/10 200 м -2.1 -3.1 93 -10 -10 1019.1 1017.7
В 7-9
{11}
21 км ливневой дождь {снег} 10/10 100 м -3.2 -4.2 93 -11 -11 1019.5 1018.2
В 6-8
{10}
50 км 10/10 200 м -3.6 -4.9 91 -11 -11 1019.8 1018.5
В 7-9
{9}
35 км 10/10 200 м -3.7 -4.9 91 -12 -12 1019.8 1018.5
В 5-7
{8}
50 км {ливн. снег, снег} 10/10 200 м -4.2 -5.6 90 -11 -11 1019.8 1018.4
СВ 3-4
{8}
50 км 10/10 200 м -4.7 -6.3 89 -10 -10 1020.3 1019.0
В 5-6
{6}
50 км 10/10 200 м -5.0 -6.6 89 -12 -12 1020.4 1019.1
В 4-6
{6}
50 км 10/10 200 м -5.0 -6.5 89 -11 -11 1020.4 1019.0
В 4-5
{6}
50 км 10/10 200 м -4.8 -6.8 86 -11 -11 1020.7 1019.4
ЮВ 3-4
{6}
50 км 10/10 300 м -4.9 -7.5 82 -10 -10 1020.8 1019.5
ЮВ 2-3
{5}
50 км 9/9 300 м -4.7 -7.6 80 -9 -9 1020.9 1019.6 -5.2 -0.7
В 2-4
{5}
50 км 10/10 300 м -4.4 -7.2 81 -9 -9 1020.8 1019.5
ЮВ 3-5
{5}
50 км 10/10 300 м -4.0 -7.0 80 -9 -9 1020.6 1019.2
ЮВ 3-4
{5}
50 км 10/10 300 м -3.7 -6.9 78 -9 -9 1020.6 1019.3
ЮВ 3-4
{5}
50 км 9/9 600 м -3.5 -6.9 77 -9 -9 1020.3 1019.0
ЮВ 2-4
{4}
50 км 9/9 600 м -3.1 -6.8 76 -7 -7 1020.1 1018.8
С 4-6
{6}
50 км 9/9 300 м -3.6 -5.6 86 -10 -10 1020.1 1018.7
В 3-5
{5}
45 км 9/9 600 м -3.2 -5.3 85 -8 -8 1019.9 1018.5
В 3-4
{5}
50 км 9/9 600 м -2.9 -5.6 82 -8 -8 1019.8 1018.4
В 2-4
{4}
50 км 9/9 600 м -2.5 -5.2 82 -6 -6 1019.5 1018.2
Ю 2-3
{4}
50 км 10/10 600 м -2.0 -6.0 74 -6 -6 1019.2 1017.9
ЮЗ 2-3
{4}
50 км 10/10 600 м -1.6 -5.8 73 -5 -5 1019.0 1017.7
СЗ 2-3
{4}
50 км 10/10 600 м -1.3 -4.8 77 -5 -5 1019.0 1017.7 -4.8 -1.1
С 2-3
{4}
50 км 10/10 600 м -1.1 -4.7 77 -5 -5 1019.0 1017.7
ЮЗ 3-4
{5}
40 км 10/10 300 м -0.8 -4.6 75 -5 -5 1019.1 1017.8
ЮЗ 5-6
{7}
50 км 10/10 600 м -0.7 -5.2 72 -7 -7 1019.2 1017.9
ЮЗ 5-6
{7}
50 км 9/9 600 м -0.8 -5.4 71 -7 -7 1019.4 1018.1
ЮЗ 3-5
{6}
50 км 10/10 600 м -0.6 -5.3 70 -5 -5 1019.0 1017.7
З 5-6
{7}
50 км ливневой дождь {осадки} 10/10 800 м 0.0 -2.5 83 -6 -6 1018.6 1017.3
З 5-8
{8}
1700 м слаб. ливневой снег 10/10 300 м -0.7 -2.0 91 -7 -7 1018.5 1017.2
З 5-6
{8}
50 км в посл. час морось 10/10 600 м +0.2 -3.1 78 -6 -6 1018.1 1016.8
З 6-7
{7}
50 км слаб. ливневой дождь 10/10 750 м +0.1 -1.6 88 -7 -7 1017.9 1016.6
З 6-8
{8}
19 км снежные зёрна 10/10 200 м +0.2 -1.2 90 -6 -6 1017.8 1016.5
З 8-10
{10}
50 км в посл. час осадки 10/10 300 м +0.5 -2.3 81 -7 -7 1017.6 1016.3
З 8-10
{10}
10 км слаб. снег 10/10 300 м +0.4 -3.0 78 -7 -7 1017.4 1016.1 -1.5 +0.8
З 9-10
{11}
30 км в посл. час морось 10/10 600 м 0.0 -3.6 77 -8 -8 1017.5 1016.2
З 9-10
{11}
50 км 10/10 1000 м -0.1 -4.2 74 -8 -8 1017.3 1016.0
З 8-10
{10}
50 км {ливн. снег, снег} 10/10 1000 м -0.4 -5.0 71 -8 -8 1017.3 1016.0
ЮЗ 6-9
{9}
50 км 10/10 600 м -0.9 -5.7 70 -7 -7 1017.2 1015.9
З 6-8
{10}
50 км 10/10 600 м -0.8 -5.5 70 -7 -7 1016.6 1015.3
З 6-9
{10}
50 км {ливн. снег, снег} 10/10 600 м -0.2 -4.2 74 -7 -7 1015.9 1014.6
З 10-12
{12}
50 км 10/10 600 м -0.3 -4.4 74 -8 -8 1015.4 1014.1
З 9-11
{12}
50 км 10/10 600 м -0.1 -4.4 73 -8 -8 1015.0 1013.7
З 6-8
{10}
50 км 10/10 600 м +0.1 -4.8 70 -6 -6 1014.6 1013.3
ЮЗ 8-9
{9}
50 км 10/10 600 м +0.4 -4.8 68 -7 -7 1014.4 1013.1
ЮЗ 9-10
{10}
50 км 10/10 1000 м +0.7 -4.6 68 -7 -7 1013.7 1012.4
ЮЗ 10-12
{12}
50 км 10/10 1110 м +0.8 -3.1 75 -7 -7 1013.5 1012.2 -1.2 +1.0
ЮЗ 11-12
{13}
40 км 10/10 1110 м +0.9 -3.1 75 -7 -7 1013.2 1011.9
ЮЗ 11-13
{13}
35 км 10/10 600 м +1.0 -3.3 73 -7 -7 1013.2 1011.9
ЮЗ 11-13
{14}
35 км 10/10 1200 м +1.3 -3.1 72 -7 -7 1013.1 1011.8
ЮЗ 12-14
{15}
26 км 10/10 600 м +1.5 -2.4 75 -7 -7 1012.9 1011.6
ЮЗ 11-13
{14}
25 км 10/10 600 м +1.4 -2.2 77 -6 -6 1012.3 1011.0
ЮЗ 11-12
{13}
20 км 10/10 300 м +1.1 -1.6 82 -7 -7 1012.1 1010.8
ЮЗ 10-12
{12}
20 км 10/10 300 м +0.9 -1.3 85 -7 -7 1011.7 1010.4
З 9-11
{11}
27 км 10/10 300 м +1.2 -1.1 85 -6 -6 1011.5 1010.2
ЮЗ 9-11
{11}
35 км 10/10 300 м +1.2 -1.1 85 -6 -6 1011.4 1010.1
ЮЗ 9-11
{11}
27 км 10/10 1080 м +1.2 -1.3 83 -6 -6 1011.3 1010.0
З 9-10
{11}
27 км 10/10 1080 м +1.3 -1.1 84 -6 -6 1011.0 1009.7
З 9-10
{11}
27 км 10/10 300 м +1.4 -1.1 83 -6 -6 1011.0 1009.7 +0.7 +1.6
ЮЗ 9-11
{11}
25 км 10/10 800 м +1.4 -1.1 83 -6 -6 1011.0 1009.7
ЮЗ 11-13
{13}
25 км 10/10 600 м +1.6 -2.3 75 -6 -6 1010.8 1009.5
ЮЗ 11-12
{13}
30 км 10/10 840 м +1.5 -2.2 76 -6 -6 1010.7 1009.5
З 11-12
{13}
35 км 10/10 600 м +1.6 -2.5 74 -6 -6 1010.7 1009.4
ЮЗ 10-12
{12}
35 км 10/10 600 м +1.5 -2.7 74 -6 -6 1010.4 1009.1
ЮЗ 9-10
{11}
45 км 10/10 600 м +1.5 -2.7 74 -6 -6 1010.1 1008.8
ЮЗ 8-9
{11}
40 км 10/10 600 м +1.6 -2.8 73 -5 -5 1009.9 1008.7
ЮЗ 7-9
{9}
50 км 10/10 600 м +1.5 -3.1 71 -5 -5 1009.8 1008.5
З 5-6
{8}
50 км 10/10 1000 м +1.5 -2.4 75 -4 -4 1009.6 1008.3
ЮЗ 6-6
{7}
50 км 10/10 1140 м +1.5 -3.6 69 -4 -4 1009.5 1008.2
ЮЗ 5-6
{6}
50 км 10/10 1000 м +1.2 -2.6 76 -4 -4 1009.1 1007.8
ЮЗ 4-5
{5}
50 км 9/9 1500 м +1.1 -2.5 77 -4 -4 1008.8 1007.5 +1.1 +1.7
Ю 6-6
{7}
50 км 10/10 1500 м +1.4 -2.6 75 -5 -5 1008.8 1007.5
ЮЗ 5-7
{7}
50 км 10/10 1500 м +1.4 -2.5 75 -4 -4 1008.6 1007.3
ЮЗ 6-6
{7}
50 км 10/10 1500 м +1.7 -1.7 78 -4 -4 1008.8 1007.5
ЮЗ 5-6
{7}
45 км осадки 10/10 300 м +2.0 -1.1 80 -3 -3 1008.5 1007.2
Ю 6-7
{7}
30 км слаб. ливневой дождь 10/10 570 м +1.7 +0.2 90 -5 -5 1008.3 1007.0
Ю 7-7
{8}
8000 м слаб. снег 10/10 540 м +1.1 +0.4 95 -6 -6 1008.0 1006.8
ЮЗ 12-14
{14}
27 км слаб. ливневой дождь 10/10 1200 м +2.3 -1.4 77 -6 -6 1007.6 1006.3
ЮЗ 12-14
{15}
22 км слаб. ливневой дождь 9/9 1500 м +2.6 -1.8 73 -5 -5 1007.7 1006.4
ЮЗ 11-12
{14}
24 км в посл. час дождь {ливн. дождь} 9/5 600 м +2.7 -1.9 72 -5 -5 1007.8 1006.5
Ю 12-15
{15}
35 км 9/1 600 м +2.4 -3.5 65 -5 -5 1007.8 1006.5
Ю 12-14
{15}
40 км 9/5 1000 м +2.5 -3.0 67 -5 -5 1007.7 1006.4
Ю 14-17
{17}
35 км {ливн. дождь, снег} 1/1 1000 м +2.2 -3.4 66 -6 -6 1007.6 1006.3 +0.9 +2.8
Ю 14-16
{16}
35 км 5/5 1000 м +2.3 -3.1 67 -6 -6 1007.6 1006.3
Ю 15-17
{17}
35 км 6/6 1260 м +2.0 -3.9 65 -6 -6 1007.6 1006.3
Ю 13-15
{17}
40 км 4/4 600 м +2.0 -2.6 72 -6 -6 1007.6 1006.3
Ю 14-17
{17}
35 км 4/4 600 м +1.8 -3.9 66 -6 -6 1007.3 1006.0
Ю 14-17
{17}
30 км 3/1 1000 м +2.0 -3.3 68 -6 -6 1007.1 1005.8
Ю 13-16
{16}
30 км 9/8 1500 м +1.6 -3.2 70 -7 -7 1006.8 1005.6
Местоположение метеостанции Лемланд Нихамн (Финляндия): широта 59.96 долгота 19.95 высота над уровнем моря 8 м.
В архиве по умолчанию представлена погода в Лемланд Нихамн за последнюю неделю. Архивные данные за месяц целиком и за предыдущие месяцы, начиная с января 2011 года, Вы можете получить, выбрав интересующий диапазон дат из раскрывающегося списка и нажав кнопку "Найти!".
*Определитесь, кто Вы:
Внимание! Время в таблицах - всемирное. Для получения местного времени необходимо прибавить поправку, которая равна 1 ч.
Смотрите также архив погоды в соседних городах и на ближайших метеорологических станциях:
Партнеры нашего сайта:      
Пояснения к столбцам:
  • Ветер - указаны скорость ветра в м/с - средняя за 10 мин, порывы в срок и между сроками (в фигурных скобках) и направление, откуда дует ветер: С - северный,
  • СВ - северо-восточный, В - восточный, ЮВ - юго-восточный, Ю - южный, ЮЗ - юго-западный, З - западный, СЗ - северо-западный.
  • Видимость - горизонтальная дальность видимости в метрах или километрах. При видимости от 1 до 10 км при отсутствии осадков обычно наблюдается дымка, при ухудшении видимости до 1 км и менее - туман. В сухую погоду видимость может ухудшаться дымом, пылью или мглою.
  • Явления - указаны атмосферные явления, наблюдавшиеся в срок или в последний час перед сроком; фигурными скобками обозначены явления, наблюдавшиеся между сроками (за 1-3 часа до срока); квадратными скобками обозначены град или гололедные отложения с указанием их диаметра в мм.
  • Облачность - указаны через наклонную черту общая и нижняя облачность в баллах и высота нижней границы облаков в метрах; квадратными скобками обозначены формы облаков: Ci - перистые, Cs - перисто-слоистые, Cc - перисто-кучевые, Ac - высококучевые, As - высокослоистые, Sc - слоисто-кучевые, Ns - слоисто-дождевые, Cu - кучевые, Cb - кучево-дождевые. Подробнее классификацию облаков см. в Атласе облаков (PDF).
  • T - Температура воздуха - температура, измеренная на высоте 2 м над землей.
  • Td - Температура точки росы - температура, при понижении до которой содержащийся в воздухе водяной пар достигнет насыщения.
  • f - Относительная влажность воздуха - влажноcть воздуха, измеренная на высоте 2 м над землей.
  • Te - Эффективная температура - температура, которую ощущает одетый по сезону человек в тени. Характеристика душности погоды. При расчете учитывается влияние влажности воздуха и скорости ветра на теплоощущения человека.
  • Tes - Эффективная температура на солнце - температура, которую ощущает человек, с поправкой на солнечный нагрев. Характеристика знойности погоды. Зависит от высоты солнца над горизонтом, облачности и скорости ветра. Ночью, в пасмурную погоду, а также при ветре 12 м/с и более поправка равна нулю.
  • P - Атмосферное давление - приведенное к уровню моря атмосферное давление.
  • Po - Атмосферное давление - измеренное на уровне метеостанции атмосферное давление.
  • Tmin - Минимальная температура - минимум температуры воздуха на высоте 2 м над землей.
  • Tmax - Максимальная температура - максимум температуры воздуха на высоте 2 м над землей.
  • R - Количество осадков - Количество выпавших осадков за период времени, мм. При наведении курсора мыши на число - период времени, за который выпало указанное количество осадков.
  • R24 - Количество осадков - Количество выпавших осадков за 24 часа, мм.
  • S - Снежный покров - Высота снежного покрова, см. При наведении курсора мыши на число - состояние снежного покрова и степень покрытия местности в баллах.